Location: Cypress Hills Dark-Sky Preserve - CHICO
(49.6176°N, 110.2634°W)
Time: 09:09:06
(UTC-07:00)

Amateur Radio Satellites - All Passes

Search period start: 24 November 2014 08:39
Search period end: 25 November 2014 08:39
Location: Cypress Hills Dark-Sky Preserve - CHICO, 49.6176°N, 110.2634°W

Satellite Date Start Highest point End Downlink Frequencies (MHz)
Time Altitude Azimuth
POLYITAN 1 24 Nov 08:38:59 08:40:15 11° 55° (NE) 08:41:31 437.675
BRITE-PL 24 Nov 08:39:12 08:42:30 22° 93° (E) 08:45:46 437.365/2234.400
QB50P2 24 Nov 08:41:29 08:43:03 12° 56° (NE) 08:44:36 145.880/145.840
HO-68 24 Nov 08:48:14 08:54:55 40° 97° (E) 09:01:32 435.675
DUCHIFAT 1 24 Nov 08:48:16 08:50:19 13° 57° (ENE) 08:52:23 145.980
AAUSAT CUBESAT 2 24 Nov 08:48:32 08:51:44 21° 92° (E) 08:54:56 437.432
AIST 1 24 Nov 08:49:13 08:50:26 11° 280° (W) 08:51:40
Cubesat XI-IV 24 Nov 08:51:03 08:54:11 16° 307° (NW) 08:57:17 437.490
CANX-2 24 Nov 08:52:26 08:56:23 35° 96° (E) 09:00:21 2200.000
TIGRISAT 24 Nov 08:52:35 08:55:35 19° 61° (ENE) 08:58:36 435.000
COMPASS 1 24 Nov 09:02:03 09:05:51 31° 95° (E) 09:09:37 437.405
DELFI C3 24 Nov 09:04:25 09:06:32 14° 88° (E) 09:08:38 145.870
UNISAT 6 24 Nov 09:04:35 09:08:02 25° 63° (ENE) 09:11:31 437.425
NANOSAT C BR1 24 Nov 09:06:12 09:09:13 19° 61° (ENE) 09:12:14 145.865
QB50P1 24 Nov 09:15:25 09:18:46 23° 63° (ENE) 09:22:07 145.935-145.965
DOVE 4 24 Nov 09:24:55 09:28:46 36° 97° (E) 09:32:40 437.250
CUTE 1.7 & AOD 2 24 Nov 09:27:11 09:31:29 73° 102° (ESE) 09:35:46 437.475
ANTELSAT 24 Nov 09:32:23 09:36:25 43° 69° (ENE) 09:40:29 437.575/2403.000
BUGSAT 1 24 Nov 09:35:43 09:39:26 30° 66° (ENE) 09:43:07 437.445
POPSAT HIP 1 24 Nov 09:39:14 09:43:10 37° 68° (ENE) 09:47:05 437.405
UKube-1 24 Nov 09:45:02 09:49:00 34° 97° (E) 09:52:57 .
FUNcube-1 24 Nov 09:45:21 09:48:23 19° 91° (E) 09:51:26 145.935
SO-50 24 Nov 09:50:47 09:53:39 15° 14° (NNE) 09:56:32 436.795
Oscar 11 24 Nov 09:57:36 10:01:52 53° 100° (E) 10:06:07 145.826/435.025
GOMX 1 24 Nov 09:58:02 10:02:13 81° 285° (WNW) 10:06:24 467.674
CUBEBUG 2 24 Nov 10:01:49 10:05:42 35° 97° (E) 10:09:39 437.445
SEEDS 24 Nov 10:02:48 10:07:00 57° 288° (WNW) 10:11:11 437.485
UWE-3 24 Nov 10:06:04 10:09:56 34° 97° (E) 10:13:51 435.000/436.395/437.385
POLYITAN 1 24 Nov 10:11:13 10:15:29 77° 74° (ENE) 10:19:45 437.675
QB50P2 24 Nov 10:14:01 10:18:17 81° 74° (ENE) 10:22:34 145.880/145.840
CINEMA 3 24 Nov 10:14:46 10:18:58 73° 103° (ESE) 10:23:14 145.822/145.860
BRITE-PL 24 Nov 10:17:21 10:21:14 39° 292° (WNW) 10:25:06 437.365/2234.400
DX 1 24 Nov 10:18:27 10:22:50 73° 104° (ESE) 10:27:10 434.975-435.025
DUCHIFAT 1 24 Nov 10:21:19 10:25:36 87° 254° (WSW) 10:29:52 145.980
AAUSAT CUBESAT 2 24 Nov 10:23:36 10:27:40 46° 290° (WNW) 10:31:43 437.432
TIGRISAT 24 Nov 10:27:50 10:32:01 55° 259° (W) 10:36:13 435.000
CANX-2 24 Nov 10:28:35 10:32:15 28° 295° (WNW) 10:35:55 2200.000
GONETS M04 24 Nov 10:29:26 10:37:23 37° 296° (WNW) 10:45:26
ESTCUBE 1 24 Nov 10:32:48 10:35:40 16° 89° (E) 10:38:31 437.505/2401.250
HO-68 24 Nov 10:35:55 10:42:50 52° 297° (WNW) 10:49:41 435.675
COMPASS 1 24 Nov 10:37:49 10:41:34 31° 294° (WNW) 10:45:19 437.405
DELFI C3 24 Nov 10:38:12 10:42:20 69° 286° (WNW) 10:46:26 145.870
VELOX 1 24 Nov 10:40:02 10:44:16 42° 98° (E) 10:48:27 145.980
NANOSAT C BR1 24 Nov 10:40:34 10:44:45 56° 259° (W) 10:48:57 145.865
UNISAT 6 24 Nov 10:40:39 10:44:41 40° 262° (W) 10:48:44 437.425
HUMSAT D 24 Nov 10:42:38 10:46:37 44° 99° (E) 10:50:38 437.325/437.525
50 SAT 24 Nov 10:44:06 10:47:54 38° 98° (E) 10:51:42 437.505
ZACube-1 24 Nov 10:45:13 10:49:26 74° 103° (ESE) 10:53:42 437.345
QB50P1 24 Nov 10:50:21 10:54:26 44° 261° (W) 10:58:32 145.935-145.965
DOVE 4 24 Nov 11:03:02 11:06:29 26° 295° (WNW) 11:09:56 437.250
CUTE 1.7 & AOD 2 24 Nov 11:04:22 11:06:55 16° 301° (WNW) 11:09:28 437.475
AISAT 24 Nov 11:05:01 11:09:28 75° 103° (ESE) 11:13:53 437.250
ANTELSAT 24 Nov 11:10:07 11:13:28 22° 267° (W) 11:16:49 437.575/2403.000
BUGSAT 1 24 Nov 11:11:01 11:14:53 33° 264° (W) 11:18:45 437.445
POPSAT HIP 1 24 Nov 11:15:35 11:19:10 26° 266° (W) 11:22:47 437.405
TISAT 1 24 Nov 11:18:19 11:19:46 12° 87° (E) 11:21:13 437.305
FUNcube-1 24 Nov 11:20:58 11:25:02 50° 289° (WNW) 11:29:09 145.935
UKube-1 24 Nov 11:21:19 11:25:08 30° 295° (WNW) 11:28:54 .
SPROUT 24 Nov 11:22:18 11:23:48 12° 87° (E) 11:25:17 437.525
CUBEBUG 1 24 Nov 11:24:56 11:29:11 46° 99° (E) 11:33:22 437.445
SO-50 24 Nov 11:31:05 11:35:33 36° 37° (NE) 11:40:04 436.795
Oscar 11 24 Nov 11:34:30 11:37:43 21° 299° (WNW) 11:40:57 145.826/435.025
GOMX 1 24 Nov 11:38:40 11:39:40 11° 305° (NW) 11:40:40 467.674
CUBEBUG 2 24 Nov 11:38:48 11:42:20 27° 295° (WNW) 11:45:55 437.445
UWE-3 24 Nov 11:42:50 11:46:25 28° 295° (WNW) 11:50:02 435.000/436.395/437.385
AO-7 24 Nov 11:48:41 11:50:01 10° 21° (NNE) 11:51:21 29.400- 29.500
POLYITAN 1 24 Nov 11:50:01 11:51:59 13° 272° (W) 11:53:58 437.675
QB50P2 24 Nov 11:53:05 11:54:48 12° 273° (W) 11:56:30 145.880/145.840
CINEMA 3 24 Nov 11:53:23 11:55:43 15° 301° (WNW) 11:58:04 145.822/145.860
DX 1 24 Nov 11:55:54 11:58:34 16° 302° (WNW) 12:01:13 434.975-435.025
DUCHIFAT 1 24 Nov 12:01:30 12:02:09 10° 274° (W) 12:02:48 145.980
Oscar 19 24 Nov 12:01:56 12:06:31 35° 64° (ENE) 12:11:08 437.125/150
ESTCUBE 1 24 Nov 12:08:29 12:13:02 67° 288° (WNW) 12:17:31 437.505/2401.250
VELOX 1 24 Nov 12:17:01 12:20:41 26° 297° (WNW) 12:24:19 145.980
HUMSAT D 24 Nov 12:19:00 12:22:14 22° 297° (WNW) 12:25:28 437.325/437.525
50 SAT 24 Nov 12:19:48 12:23:05 24° 296° (WNW) 12:26:22 437.505
ZACube-1 24 Nov 12:22:57 12:25:20 15° 301° (WNW) 12:27:43 437.345
HO-68 24 Nov 12:25:19 12:28:59 15° 320° (NW) 12:32:39 435.675
AISAT 24 Nov 12:42:52 12:45:35 16° 302° (WNW) 12:48:18 437.250
YUBILEINY 24 Nov 12:46:18 12:54:18 37° 65° (ENE) 13:02:11 435.215
ITUPSAT 1 24 Nov 12:50:15 12:53:30 18° 90° (E) 12:56:44 437.325
ITAMSAT 1 24 Nov 12:50:46 12:55:36 39° 65° (ENE) 13:00:26 435.822/435.867
TISAT 1 24 Nov 12:51:59 12:56:14 84° 286° (WNW) 13:00:26 437.305
SPROUT 24 Nov 12:56:12 13:00:31 85° 285° (WNW) 13:04:48 437.525
SWISSCUBE 24 Nov 13:01:28 13:05:22 24° 93° (E) 13:09:15 437.505
CUBEBUG 1 24 Nov 13:01:51 13:05:19 23° 298° (WNW) 13:08:45 437.445
AUBIESAT-1 24 Nov 13:01:54 13:05:57 25° 98° (E) 13:09:56 437.475
M-CUBED/EXP-1 PRIME 24 Nov 13:05:43 13:10:00 29° 99° (E) 13:14:15 437.505
HORYU 2 24 Nov 13:11:07 13:13:45 16° 57° (ENE) 13:16:23 437.375
SO-50 24 Nov 13:11:36 13:16:18 50° 237° (WSW) 13:21:02 436.795
Gurwin Techsat 1B 24 Nov 13:12:44 13:17:33 37° 64° (ENE) 13:22:24 435.225
BEESAT 24 Nov 13:32:32 13:37:06 42° 98° (E) 13:41:38 436.000
AO-7 24 Nov 13:33:22 13:40:02 28° 47° (NE) 13:46:43 29.400- 29.500
Oscar 19 24 Nov 13:41:05 13:45:50 38° 263° (W) 13:50:37 437.125/150
CUSAT 1 24 Nov 13:43:13 13:45:53 73° 282° (WNW) 13:48:31 437.405
ESTCUBE 1 24 Nov 13:47:51 13:49:03 11° 307° (NW) 13:50:16 437.505/2401.250
STARS 24 Nov 13:52:27 13:53:17 10° 86° (E) 13:54:07 437.465
DANDE 24 Nov 14:01:35 14:04:15 48° 284° (WNW) 14:06:48 436.750
KKS-1 24 Nov 14:26:57 14:30:59 32° 96° (E) 14:34:58 437.445
ITUPSAT 1 24 Nov 14:27:05 14:31:53 67° 288° (WNW) 14:36:39 437.325
TISAT 1 24 Nov 14:29:48 14:31:24 12° 304° (NW) 14:32:59 437.305
ITAMSAT 1 24 Nov 14:30:24 14:35:08 35° 264° (W) 14:39:55 435.822/435.867
O/OREOS (USA 219) 24 Nov 14:31:21 14:34:35 19° 45° (NE) 14:37:49 437.305
SPROUT 24 Nov 14:34:10 14:35:56 12° 304° (NW) 14:37:42 437.525
AUBIESAT-1 24 Nov 14:36:23 14:41:11 54° 296° (WNW) 14:45:56 437.475
SWISSCUBE 24 Nov 14:38:51 14:43:30 49° 292° (WNW) 14:48:06 437.505
M-CUBED/EXP-1 PRIME 24 Nov 14:40:28 14:45:11 47° 297° (WNW) 14:49:53 437.505
YUBILEINY 24 Nov 14:43:05 14:51:37 61° 268° (W) 15:00:05 435.215
JAS-2 24 Nov 14:45:00 14:50:45 23° 51° (NE) 14:56:31 435.910
HORYU 2 24 Nov 14:45:27 14:49:52 78° 256° (WSW) 14:54:21 437.375
Gurwin Techsat 1B 24 Nov 14:52:34 14:57:30 38° 263° (W) 15:02:29 435.225
BEESAT 24 Nov 15:10:41 15:14:49 29° 297° (WNW) 15:18:55 436.000
AO-7 24 Nov 15:23:35 15:31:53 89° 69° (ENE) 15:40:17 29.400- 29.500
STARS 24 Nov 15:26:04 15:30:30 85° 104° (ESE) 15:34:53 437.465
RS-15 24 Nov 15:27:52 15:36:41 30° 104° (ESE) 15:45:29 29.354- 29.394
MaSat-1 24 Nov 15:50:13 15:53:02 44° 117° (ESE) 15:55:37 437.345
CUTE-I 24 Nov 16:00:39 16:04:00 17° 54° (NE) 16:07:21 437.470
KKS-1 24 Nov 16:03:40 16:07:37 32° 295° (WNW) 16:11:33 437.445
ITUPSAT 1 24 Nov 16:07:08 16:08:54 12° 308° (NW) 16:10:40 437.325
O/OREOS (USA 219) 24 Nov 16:10:02 16:14:31 73° 246° (WSW) 16:18:58 437.305
AUBIESAT-1 24 Nov 16:13:30 16:15:12 12° 315° (NW) 16:16:54 437.475
M-CUBED/EXP-1 PRIME 24 Nov 16:18:18 16:19:10 10° 316° (NW) 16:20:03 437.505
PHONESAT 2.4 24 Nov 16:22:14 16:24:11 14° 162° (SSE) 16:26:09 2401.200-2431.200
JAS-2 24 Nov 16:26:58 16:34:39 78° 71° (ENE) 16:42:32 435.910
VERMONT LUNAR 24 Nov 16:39:11 16:41:36 17° 169° (SSE) 16:44:00 437.305
GONETS M04 24 Nov 16:41:51 16:44:20 11° 38° (NE) 16:46:49
YUBILEINY 24 Nov 16:42:38 16:46:28 14° 291° (WNW) 16:50:19 435.215
MOZHAYETS 4 24 Nov 16:56:19 17:00:40 37° 96° (E) 17:04:59
Cubesat XI-IV 24 Nov 16:56:31 17:01:33 43° 66° (ENE) 17:06:36 437.490
STARS 24 Nov 17:04:01 17:06:23 14° 303° (WNW) 17:08:45 437.465
AO-7 24 Nov 17:19:26 17:25:46 24° 270° (W) 17:32:10 29.400- 29.500
MaSat-1 24 Nov 17:26:28 17:27:47 13° 314° (NW) 17:29:04 437.345
RS-15 24 Nov 17:36:42 17:47:40 89° 309° (NW) 17:58:45 29.354- 29.394
CUTE-I 24 Nov 17:37:58 17:43:20 86° 73° (ENE) 17:48:44 437.470
HO-68 24 Nov 17:38:39 17:41:56 14° 39° (NE) 17:45:14 435.675
PHONESAT 2.4 24 Nov 17:59:25 18:02:13 20° 179° (S) 18:05:01 2401.200-2431.200
JAS-2 24 Nov 18:13:58 18:20:22 28° 272° (W) 18:26:56 435.910
VERMONT LUNAR 24 Nov 18:16:44 18:19:22 19° 186° (S) 18:22:00 437.305
STRAND 1 24 Nov 18:27:51 18:32:04 25° 93° (E) 18:36:16 437.568
CUBESAT XI-V 24 Nov 18:33:30 18:37:37 29° 94° (E) 18:41:40 437.345
MOZHAYETS 4 24 Nov 18:33:44 18:37:49 31° 295° (WNW) 18:41:54
GONETS M04 24 Nov 18:36:07 18:44:24 41° 66° (ENE) 18:52:34
Cubesat XI-IV 24 Nov 18:36:56 18:41:45 33° 265° (W) 18:46:36 437.490
PRISM 24 Nov 18:41:43 18:46:00 80° 104° (ESE) 18:50:14 437.425
CUTE 1.7 & AOD 2 24 Nov 18:51:34 18:53:25 13° 57° (ENE) 18:55:17 437.475
CUTE-I 24 Nov 19:20:56 19:24:08 16° 273° (W) 19:27:20 437.470
HO-68 24 Nov 19:21:12 19:28:00 48° 61° (ENE) 19:34:49 435.675
Oscar 11 24 Nov 19:24:33 19:25:30 11° 54° (NE) 19:26:26 145.826/435.025
SEEDS 24 Nov 19:24:50 19:28:03 22° 63° (ENE) 19:31:18 437.485
GOMX 1 24 Nov 19:33:32 19:37:16 24° 64° (ENE) 19:40:50 467.674
PCSat 24 Nov 19:36:23 19:40:49 27° 110° (ESE) 19:45:17 145.827
PHONESAT 2.4 24 Nov 19:38:05 19:40:16 15° 196° (SSW) 19:42:27 2401.200-2431.200
AIST 1 24 Nov 19:43:14 19:47:22 41° 92° (E) 19:51:32
DX 1 24 Nov 19:44:16 19:46:58 16° 58° (ENE) 19:49:40 434.975-435.025
AAUSAT CUBESAT 2 24 Nov 19:44:20 19:47:47 25° 64° (ENE) 19:51:14 437.432
CINEMA 3 24 Nov 19:46:11 19:48:43 16° 59° (ENE) 19:51:13 145.822/145.860
CANX-2 24 Nov 19:49:52 19:53:52 44° 70° (ENE) 19:57:55 2200.000
RS-15 24 Nov 19:51:14 20:01:29 43° 338° (NNW) 20:11:59 29.354- 29.394
BRITE-PL 24 Nov 19:53:44 19:58:29 47° 70° (ENE) 20:02:54 437.365/2234.400
VERMONT LUNAR 24 Nov 19:56:12 19:57:01 11° 202° (SSW) 19:57:50 437.305
DELFI C3 24 Nov 19:57:43 20:00:21 17° 60° (ENE) 20:03:01 145.870
COMPASS 1 24 Nov 19:58:07 20:01:58 37° 68° (ENE) 20:05:51 437.405
STRAND 1 24 Nov 20:06:35 20:11:33 51° 292° (WNW) 20:16:28 437.568
VELOX 1 24 Nov 20:09:47 20:10:46 11° 53° (NE) 20:11:44 145.980
CUBESAT XI-V 24 Nov 20:10:48 20:15:09 38° 293° (WNW) 20:19:26 437.345
ZACube-1 24 Nov 20:12:05 20:14:11 14° 58° (ENE) 20:16:17 437.345
BEESAT 3 24 Nov 20:15:05 20:18:13 21° 115° (ESE) 20:21:23 437.485
PRISM 24 Nov 20:18:40 20:20:59 15° 303° (WNW) 20:23:18 437.425
CUTE 1.7 & AOD 2 24 Nov 20:24:29 20:28:43 90° 75° (ENE) 20:32:59 437.475
BEESAT 2 24 Nov 20:28:58 20:32:24 26° 117° (ESE) 20:35:54 435.950
AISAT 24 Nov 20:32:56 20:35:50 17° 58° (ENE) 20:38:43 437.250
GONETS M04 24 Nov 20:33:01 20:41:35 57° 270° (W) 20:50:04
DOVE 4 24 Nov 20:34:52 20:39:24 64° 73° (ENE) 20:43:43 437.250
UKube-1 24 Nov 20:44:17 20:48:31 52° 70° (ENE) 20:52:46 .
FUNcube-1 24 Nov 20:45:50 20:49:21 26° 65° (ENE) 20:52:51 145.935
CUBEBUG 1 24 Nov 20:53:10 20:54:13 11° 54° (NE) 20:55:16 437.445
Oscar 11 24 Nov 20:56:36 21:00:52 71° 73° (ENE) 21:05:12 145.826/435.025
AIST 2 24 Nov 20:57:07 21:00:39 26° 116° (ESE) 21:04:15 435.215
SEEDS 24 Nov 20:59:37 21:03:39 45° 261° (W) 21:07:43 437.485
CUBEBUG 2 24 Nov 21:04:39 21:08:47 52° 71° (ENE) 21:12:51 437.445
UWE-3 24 Nov 21:07:48 21:11:53 49° 71° (ENE) 21:15:55 435.000/436.395/437.385
HO-68 24 Nov 21:09:00 21:15:47 44° 262° (W) 21:22:37 435.675
GOMX 1 24 Nov 21:10:38 21:15:13 47° 261° (W) 21:19:33 467.674
DX 1 24 Nov 21:18:19 21:22:42 74° 256° (WSW) 21:27:07 434.975-435.025
PCSat 24 Nov 21:18:30 21:23:52 62° 310° (NW) 21:29:17 145.827
AAUSAT CUBESAT 2 24 Nov 21:19:28 21:23:20 37° 263° (W) 21:27:14 437.432
CINEMA 3 24 Nov 21:21:07 21:25:30 72° 257° (WSW) 21:29:44 145.822/145.860
AIST 1 24 Nov 21:21:38 21:25:13 24° 292° (WNW) 21:28:50
CANX-2 24 Nov 21:26:48 21:30:03 21° 268° (W) 21:33:19 2200.000
DELFI C3 24 Nov 21:31:14 21:35:16 60° 259° (W) 21:39:20 145.870
BRITE-PL 24 Nov 21:33:11 21:37:12 24° 266° (W) 21:41:01 437.365/2234.400
COMPASS 1 24 Nov 21:34:24 21:37:50 25° 267° (W) 21:41:18 437.405
ESTCUBE 1 24 Nov 21:36:37 21:40:25 26° 63° (ENE) 21:44:13 437.505/2401.250
50 SAT 24 Nov 21:37:19 21:41:10 44° 70° (ENE) 21:45:02 437.505
HUMSAT D 24 Nov 21:39:16 21:43:19 56° 72° (ENE) 21:47:22 437.325/437.525
VELOX 1 24 Nov 21:42:04 21:46:31 66° 72° (ENE) 21:50:58 145.980
ZACube-1 24 Nov 21:45:48 21:50:01 81° 257° (WSW) 21:54:13 437.345
STRAND 1 24 Nov 21:49:32 21:49:37 10° 312° (NW) 21:49:42 437.568
BEESAT 3 24 Nov 21:52:02 21:56:07 57° 314° (NW) 22:00:16 437.485
CUTE 1.7 & AOD 2 24 Nov 22:04:23 22:05:19 11° 274° (W) 22:06:15 437.475
DUCHIFAT 1 24 Nov 22:04:36 22:06:01 11° 87° (E) 22:07:26 145.980
BEESAT 2 24 Nov 22:06:28 22:10:30 48° 316° (NW) 22:14:36 435.950
RS-15 24 Nov 22:07:05 22:17:11 39° 12° (NNE) 22:27:35 29.354- 29.394
AISAT 24 Nov 22:07:30 22:11:59 71° 257° (WSW) 22:16:28 437.250
DOVE 4 24 Nov 22:14:44 22:17:35 16° 270° (W) 22:20:21 437.250
TISAT 1 24 Nov 22:14:50 22:17:40 18° 60° (ENE) 22:20:30 437.305
TIGRISAT 24 Nov 22:15:36 22:19:02 22° 93° (E) 22:22:31 435.000
SPROUT 24 Nov 22:20:28 22:23:20 18° 60° (ENE) 22:26:12 437.525
FUNcube-1 24 Nov 22:21:45 22:25:37 35° 263° (W) 22:29:29 145.935
UKube-1 24 Nov 22:21:48 22:24:59 20° 268° (W) 22:28:12 .
NANOSAT C BR1 24 Nov 22:22:36 22:25:29 18° 91° (E) 22:28:22 145.865
AUBIESAT-1 24 Nov 22:24:27 22:25:23 11° 44° (NE) 22:26:19 437.475
CUBEBUG 1 24 Nov 22:25:21 22:29:47 68° 73° (ENE) 22:34:13 437.445
M-CUBED/EXP-1 PRIME 24 Nov 22:27:52 22:29:34 12° 46° (NE) 22:31:18 437.505
UNISAT 6 24 Nov 22:28:13 22:32:05 29° 95° (E) 22:36:01 437.425
QB50P1 24 Nov 22:32:00 22:35:18 22° 93° (E) 22:38:35 145.935-145.965
GONETS M04 24 Nov 22:33:05 22:36:17 13° 293° (WNW) 22:39:29
CUSAT 1 24 Nov 22:33:32 22:35:55 14° 67° (ENE) 22:38:38 437.405
AIST 2 24 Nov 22:34:56 22:39:05 49° 316° (NW) 22:43:18 435.215
Oscar 11 24 Nov 22:35:16 22:37:34 14° 272° (W) 22:39:53 145.826/435.025
CUBEBUG 2 24 Nov 22:42:53 22:45:49 18° 269° (W) 22:48:44 437.445
UWE-3 24 Nov 22:45:42 22:48:44 19° 269° (W) 22:51:45 435.000/436.395/437.385
BUGSAT 1 24 Nov 22:49:26 22:52:55 26° 94° (E) 22:56:21 437.445
DANDE 24 Nov 22:53:16 22:56:01 17° 69° (ENE) 22:59:17 436.750
POPSAT HIP 1 24 Nov 22:56:12 23:00:09 37° 97° (E) 23:04:04 437.405
ANTELSAT 24 Nov 22:56:32 23:00:53 54° 100° (E) 23:05:18 437.575/2403.000
PCSat 24 Nov 23:04:30 23:08:24 20° 333° (NNW) 23:12:19 145.827
BEESAT 24 Nov 23:08:43 23:11:02 14° 54° (NE) 23:13:22 436.000
ESTCUBE 1 24 Nov 23:12:47 23:17:07 43° 262° (W) 23:21:29 437.505/2401.250
50 SAT 24 Nov 23:13:46 23:16:44 20° 268° (W) 23:19:42 437.505
HUMSAT D 24 Nov 23:16:51 23:19:30 16° 270° (W) 23:22:09 437.325/437.525
VELOX 1 24 Nov 23:20:45 23:23:34 16° 270° (W) 23:26:23 145.980
POLYITAN 1 24 Nov 23:28:48 23:33:04 80° 104° (ESE) 23:37:18 437.675
QB50P2 24 Nov 23:31:21 23:35:37 85° 104° (ESE) 23:39:51 145.880/145.840
BEESAT 3 24 Nov 23:32:34 23:35:13 16° 336° (NNW) 23:37:53 437.485
DUCHIFAT 1 24 Nov 23:38:16 23:42:31 84° 285° (WNW) 23:46:44 145.980
BEESAT 2 24 Nov 23:47:21 23:49:47 15° 338° (NNW) 23:52:15 435.950
TISAT 1 24 Nov 23:48:51 23:53:06 63° 258° (WSW) 23:57:21 437.305
MaSat-1 24 Nov 23:50:57 23:52:40 18° 50° (NE) 23:54:24 437.345
TIGRISAT 24 Nov 23:51:49 23:56:02 47° 290° (WNW) 00:00:18 435.000
SPROUT 24 Nov 23:54:42 23:59:00 64° 258° (WSW) 00:03:19 437.525
AUBIESAT-1 24 Nov 23:55:18 23:59:21 56° 64° (ENE) 00:03:48 437.475
ISS 24 Nov 23:55:49 23:57:59 16° 139° (SE) 00:00:08 145.825
NANOSAT C BR1 24 Nov 23:57:35 00:01:43 54° 289° (WNW) 00:05:50 145.865
M-CUBED/EXP-1 PRIME 24 Nov 23:59:36 00:03:41 66° 66° (ENE) 00:08:12 437.505
ITUPSAT 1 25 Nov 00:01:06 00:05:25 34° 65° (ENE) 00:09:45 437.325
CUBEBUG 1 25 Nov 00:03:56 00:06:38 16° 271° (W) 00:09:20 437.445
UNISAT 6 25 Nov 00:04:56 00:08:57 36° 293° (WNW) 00:13:02 437.425
QB50P1 25 Nov 00:07:24 00:11:25 43° 291° (WNW) 00:15:25 145.935-145.965
SWISSCUBE 25 Nov 00:12:14 00:16:48 45° 68° (ENE) 00:21:24 437.505
CUSAT 1 25 Nov 00:15:03 00:19:14 78° 259° (W) 00:24:55 437.405
AIST 2 25 Nov 00:16:05 00:18:43 16° 338° (NNW) 00:21:21 435.215
RS-15 25 Nov 00:20:42 00:31:50 70° 43° (NE) 00:43:23 29.354- 29.394
BUGSAT 1 25 Nov 00:24:46 00:28:30 34° 293° (WNW) 00:32:11 437.445
POPSAT HIP 1 25 Nov 00:32:24 00:35:56 26° 296° (WNW) 00:39:27 437.405
ANTELSAT 25 Nov 00:34:06 00:37:23 21° 298° (WNW) 00:40:43 437.575/2403.000
DANDE 25 Nov 00:35:37 00:39:36 59° 260° (W) 00:44:59 436.750
BEESAT 25 Nov 00:43:19 00:48:07 78° 73° (ENE) 00:52:57 436.000
PCSat 25 Nov 00:51:52 00:54:03 12° 360° (N) 00:56:14 145.827
STARS 25 Nov 00:52:54 00:55:54 18° 59° (ENE) 00:58:53 437.465
POLYITAN 1 25 Nov 01:06:13 01:08:28 14° 302° (WNW) 01:10:42 437.675
QB50P2 25 Nov 01:08:52 01:10:57 14° 303° (WNW) 01:13:02 145.880/145.840
BEESAT 3 25 Nov 01:14:56 01:15:11 10° 0° (N) 01:15:26 437.485
DUCHIFAT 1 25 Nov 01:16:07 01:17:43 12° 304° (NW) 01:19:19 145.980
MaSat-1 25 Nov 01:25:34 01:27:10 16° 248° (WSW) 01:28:46 437.345
BEESAT 2 25 Nov 01:29:19 01:29:51 10° 3° (N) 01:30:24 435.950
KKS-1 25 Nov 01:29:24 01:33:43 51° 70° (ENE) 01:38:03 437.445
ISS 25 Nov 01:30:55 01:34:11 70° 157° (SSE) 01:37:28 145.825
AUBIESAT-1 25 Nov 01:31:48 01:34:47 19° 265° (W) 01:37:57 437.475
M-CUBED/EXP-1 PRIME 25 Nov 01:36:43 01:39:18 16° 267° (W) 01:42:02 437.505
ITUPSAT 1 25 Nov 01:38:51 01:43:17 36° 263° (W) 01:47:45 437.325
Oscar 19 25 Nov 01:47:37 01:52:42 55° 100° (E) 01:57:45 437.125/150
SWISSCUBE 25 Nov 01:50:49 01:54:51 27° 266° (W) 01:58:56 437.505
YUBILEINY 25 Nov 01:53:28 02:01:08 36° 83° (E) 02:08:47 435.215
AIST 2 25 Nov 01:58:06 01:59:08 11° 3° (N) 02:00:10 435.215
BEESAT 25 Nov 02:23:46 02:26:33 15° 272° (W) 02:29:22 436.000
STARS 25 Nov 02:27:35 02:31:58 64° 258° (WSW) 02:36:21 437.465
RS-15 25 Nov 02:33:27 02:43:48 46° 248° (WSW) 02:54:34 29.354- 29.394
HORYU 2 25 Nov 02:33:57 02:36:38 15° 89° (E) 02:39:18 437.375
PCSat 25 Nov 02:35:53 02:39:44 19° 26° (NNE) 02:43:33 145.827
ITAMSAT 1 25 Nov 02:38:08 02:43:18 61° 102° (ESE) 02:48:24 435.822/435.867
BEESAT 3 25 Nov 02:52:27 02:55:08 16° 24° (NNE) 02:57:49 437.485
Gurwin Techsat 1B 25 Nov 03:03:43 03:09:01 62° 102° (ESE) 03:14:16 435.225
BEESAT 2 25 Nov 03:06:53 03:09:49 18° 27° (NNE) 03:12:45 435.950
KKS-1 25 Nov 03:07:20 03:10:40 21° 268° (W) 03:14:01 437.445
ISS 25 Nov 03:07:40 03:10:56 58° 357° (N) 03:14:12 145.825
AO-7 25 Nov 03:21:04 03:27:23 23° 89° (E) 03:33:38 29.400- 29.500
Oscar 19 25 Nov 03:27:32 03:31:44 26° 300° (WNW) 03:35:57 437.125/150
SO-50 25 Nov 03:31:36 03:34:49 19° 112° (ESE) 03:38:05 436.795
AIST 2 25 Nov 03:36:23 03:39:28 19° 27° (NNE) 03:42:31 435.215
YUBILEINY 25 Nov 03:48:45 03:57:28 63° 285° (WNW) 04:06:12 435.215
MOZHAYETS 4 25 Nov 04:02:32 04:07:02 57° 71° (ENE) 04:11:35
PRISM 25 Nov 04:03:32 04:05:56 15° 57° (ENE) 04:08:20 437.425
HORYU 2 25 Nov 04:09:19 04:13:48 70° 288° (WNW) 04:18:17 437.375
STRAND 1 25 Nov 04:13:11 04:14:39 11° 49° (NE) 04:16:06 437.568
ITAMSAT 1 25 Nov 04:18:20 04:22:25 24° 301° (WNW) 04:26:28 435.822/435.867
PCSat 25 Nov 04:18:55 04:24:18 59° 49° (NE) 04:29:39 145.827
BEESAT 3 25 Nov 04:30:04 04:34:14 57° 46° (NE) 04:38:22 437.485
Gurwin Techsat 1B 25 Nov 04:44:23 04:48:36 24° 301° (WNW) 04:52:47 435.225
ISS 25 Nov 04:44:26 04:47:45 86° 17° (NNE) 04:51:03 145.825
BEESAT 2 25 Nov 04:44:38 04:48:52 69° 48° (NE) 04:53:03 435.950
SO-50 25 Nov 05:10:17 05:14:50 72° 313° (NW) 05:19:34 436.795
Cubesat XI-IV 25 Nov 05:11:43 05:13:16 11° 84° (E) 05:14:49 437.490
AO-7 25 Nov 05:12:52 05:21:18 88° 110° (ESE) 05:29:41 29.400- 29.500
AIST 2 25 Nov 05:14:32 05:18:52 70° 48° (NE) 05:23:08 435.215
JAS-2 25 Nov 05:17:58 05:25:04 50° 96° (E) 05:31:20 435.910
PRISM 25 Nov 05:36:44 05:40:56 77° 256° (WSW) 05:45:13 437.425
CUBESAT XI-V 25 Nov 05:41:04 05:45:35 47° 69° (ENE) 05:50:07 437.345
MOZHAYETS 4 25 Nov 05:41:18 05:44:38 20° 270° (W) 05:48:00
AIST 1 25 Nov 05:46:38 05:49:43 18° 65° (ENE) 05:52:45
STRAND 1 25 Nov 05:47:46 05:52:48 57° 69° (ENE) 05:57:51 437.568
HORYU 2 25 Nov 05:48:19 05:49:41 11° 307° (NW) 05:51:03 437.375
YUBILEINY 25 Nov 05:50:57 05:56:26 18° 311° (NW) 06:01:55 435.215
CUTE-I 25 Nov 05:51:17 05:55:37 25° 92° (E) 05:59:54 437.470
PCSat 25 Nov 06:02:50 06:07:24 28° 249° (WSW) 06:11:57 145.827
BEESAT 3 25 Nov 06:08:56 06:12:09 21° 245° (WSW) 06:15:20 437.485
ISS 25 Nov 06:21:22 06:24:09 25° 216° (SW) 06:26:55 145.825
BEESAT 2 25 Nov 06:23:53 06:26:43 18° 247° (WSW) 06:29:31 435.950
O/OREOS (USA 219) 25 Nov 06:26:25 06:30:48 55° 112° (ESE) 06:35:11 437.305
Cubesat XI-IV 25 Nov 06:48:59 06:54:21 72° 103° (ESE) 06:59:39 437.490
SO-50 25 Nov 06:52:40 06:56:13 21° 335° (NNW) 06:59:50 436.795
AIST 2 25 Nov 06:54:07 06:57:02 18° 247° (WSW) 06:59:56 435.215
JAS-2 25 Nov 07:03:11 07:09:57 41° 299° (WNW) 07:16:02 435.910
AO-7 25 Nov 07:06:24 07:13:13 29° 312° (NW) 07:20:01 29.400- 29.500
CUBESAT XI-V 25 Nov 07:19:24 07:23:15 25° 268° (W) 07:27:08 437.345
AIST 1 25 Nov 07:23:27 07:27:47 56° 265° (W) 07:32:02
STRAND 1 25 Nov 07:28:16 07:32:21 23° 268° (W) 07:36:26 437.568
CUTE-I 25 Nov 07:30:49 07:36:02 56° 291° (WNW) 07:41:13 437.470
GONETS M04 25 Nov 07:43:08 07:51:01 39° 84° (E) 07:58:57
O/OREOS (USA 219) 25 Nov 08:06:56 08:10:32 23° 312° (NW) 08:14:09 437.305
CUTE 1.7 & AOD 2 25 Nov 08:07:36 08:09:20 12° 87° (E) 08:11:04 437.475
ANTELSAT 25 Nov 08:26:55 08:28:26 12° 55° (NE) 08:29:57 437.575/2403.000
Cubesat XI-IV 25 Nov 08:29:58 08:33:56 22° 303° (WNW) 08:37:53 437.490
DOVE 4 25 Nov 08:31:59 08:33:01 11° 87° (E) 08:34:03 437.250
